Location: Dulzura
(32.6442°N, 116.7814°W)
Time: 14:50:24
(UTC+00:00)

Meteor 1-31 Rocket - Pass Details

Date: 07 December 2021
Orbit: 519 x 544 km, 97.7° (Epoch: 19 January)

Event Time Altitude Azimuth Distance (km) Brightness Sun altitude
Rises 12:29:05 0° 21° (NNE) 2,704 6.5 -26.1°
Reaches altitude 10° 12:31:19 10° 29° (NNE) 1,810 5.6 -25.7°
Maximum altitude 12:35:00 39° 99° (E) 830 4.2 -24.9°
Drops below altitude 10° 12:38:39 10° 169° (SSE) 1,804 5.7 -24.2°
Sets 12:40:52 0° 177° (S) 2,692 6.5 -23.7°
